TimeMDT,TemperatureF,Dew PointF,Humidity,Sea Level PressureIn,VisibilityMPH,Wind Direction,Wind SpeedMPH,Gust SpeedMPH,PrecipitationIn,Events,Conditions,WindDirDegrees,DateUTC
12:15 AM,68.9,49.3,50,30.23,10.0,SSE,4.6,-,N/A,,Clear,150,2013-07-08 06:15:00
12:35 AM,69.3,49.1,49,30.23,10.0,SE,9.2,-,N/A,,Clear,140,2013-07-08 06:35:00
12:55 AM,69.6,48.2,46,30.23,10.0,SE,10.4,-,N/A,,Clear,130,2013-07-08 06:55:00
1:15 AM,69.1,47.5,46,30.23,10.0,ESE,11.5,-,N/A,,Clear,120,2013-07-08 07:15:00
1:35 AM,68.5,47.3,47,30.24,10.0,ESE,11.5,-,N/A,,Clear,120,2013-07-08 07:35:00
1:55 AM,68.0,47.8,48,30.24,10.0,SE,11.5,-,N/A,,Scattered Clouds,130,2013-07-08 07:55:00
2:15 AM,68.0,48.2,49,30.24,10.0,ESE,12.7,-,N/A,,Mostly Cloudy,120,2013-07-08 08:15:00
2:35 AM,67.5,48.0,50,30.24,10.0,SSE,9.2,-,N/A,,Scattered Clouds,150,2013-07-08 08:35:00
2:55 AM,65.5,48.4,54,30.24,10.0,SSW,8.1,-,N/A,,Clear,200,2013-07-08 08:55:00
3:15 AM,64.8,48.7,56,30.24,10.0,WSW,3.5,-,N/A,,Scattered Clouds,240,2013-07-08 09:15:00
3:35 AM,64.2,49.3,58,30.25,10.0,WNW,4.6,-,N/A,,Scattered Clouds,300,2013-07-08 09:35:00
3:55 AM,64.6,49.1,57,30.26,10.0,Calm,Calm,-,N/A,,Mostly Cloudy,0,2013-07-08 09:55:00
4:15 AM,63.9,50.4,61,30.26,10.0,NW,4.6,-,N/A,,Overcast,320,2013-07-08 10:15:00
4:55 AM,62.2,50.2,65,30.27,10.0,East,4.6,-,N/A,,Scattered Clouds,80,2013-07-08 10:55:00
5:15 AM,61.5,49.6,65,30.27,10.0,Calm,Calm,-,N/A,,Clear,0,2013-07-08 11:15:00
5:35 AM,60.3,50.2,69,30.27,10.0,North,3.5,-,N/A,,Scattered Clouds,10,2013-07-08 11:35:00
5:55 AM,60.1,49.5,68,30.27,10.0,Calm,Calm,-,N/A,,Scattered Clouds,0,2013-07-08 11:55:00
6:15 AM,60.1,49.5,68,30.28,10.0,Calm,Calm,-,N/A,,Clear,0,2013-07-08 12:15:00
6:35 AM,60.1,49.3,67,30.28,10.0,Calm,Calm,-,N/A,,Clear,0,2013-07-08 12:35:00
6:55 AM,60.3,50.0,69,30.29,10.0,Calm,Calm,-,N/A,,Clear,0,2013-07-08 12:55:00
7:15 AM,62.4,50.0,64,30.31,10.0,ESE,4.6,-,N/A,Thunderstorm,Thunderstorm,120,2013-07-08 13:15:00
7:35 AM,66.9,50.7,56,30.32,10.0,SE,9.2,-,N/A,,Scattered Clouds,140,2013-07-08 13:35:00
7:55 AM,69.1,52.2,55,30.32,10.0,SSE,18.4,-,N/A,Thunderstorm,Clear,160,2013-07-08 13:55:00
8:15 AM,67.5,52.7,59,30.32,10.0,South,15.0,-,N/A,,Clear,170,2013-07-08 14:15:00
8:35 AM,68.2,52.7,58,30.33,10.0,South,11.5,-,N/A,,Scattered Clouds,190,2013-07-08 14:35:00
8:55 AM,70.0,51.8,52,30.34,10.0,South,15.0,-,N/A,Thunderstorm,Overcast,170,2013-07-08 14:55:00
9:15 AM,69.8,53.8,57,30.33,10.0,South,17.3,-,N/A,,Mostly Cloudy,190,2013-07-08 15:15:00
9:35 AM,71.8,52.9,51,30.32,10.0,South,16.1,-,N/A,,Scattered Clouds,190,2013-07-08 15:35:00
9:55 AM,73.9,52.2,46,30.32,10.0,SSW,15.0,-,N/A,,Scattered Clouds,200,2013-07-08 15:55:00
10:15 AM,74.7,50.0,42,30.32,10.0,SSW,13.8,-,N/A,,Mostly Cloudy,200,2013-07-08 16:15:00
10:35 AM,75.2,48.4,39,30.32,10.0,SSW,11.5,-,N/A,,Mostly Cloudy,200,2013-07-08 16:35:00
10:55 AM,75.6,47.5,37,30.32,10.0,SSW,10.4,-,N/A,,Mostly Cloudy,210,2013-07-08 16:55:00
11:15 AM,76.5,46.8,35,30.31,10.0,SSE,6.9,-,N/A,,Scattered Clouds,160,2013-07-08 17:15:00
11:35 AM,76.1,46.4,35,30.31,10.0,South,6.9,-,N/A,,Clear,170,2013-07-08 17:35:00
11:55 AM,78.6,47.1,33,30.31,10.0,Calm,Calm,-,N/A,,Clear,0,2013-07-08 17:55:00
12:15 PM,80.8,46.8,30,30.30,10.0,SE,3.5,-,N/A,,Clear,130,2013-07-08 18:15:00
12:35 PM,83.8,46.0,27,30.29,10.0,SE,4.6,-,N/A,,Clear,140,2013-07-08 18:35:00
12:55 PM,84.0,46.6,27,30.28,10.0,South,12.7,17.3,N/A,,Clear,190,2013-07-08 18:55:00
1:15 PM,82.4,47.1,29,30.28,10.0,SSE,12.7,17.3,N/A,,Clear,160,2013-07-08 19:15:00
1:35 PM,82.0,46.8,29,30.28,10.0,SSE,12.7,20.7,N/A,,Clear,150,2013-07-08 19:35:00
1:55 PM,82.4,48.0,30,30.28,10.0,SSE,17.3,21.9,N/A,,Clear,160,2013-07-08 19:55:00
2:15 PM,83.1,47.7,29,30.27,10.0,SE,17.3,24.2,N/A,,Clear,140,2013-07-08 20:15:00
2:35 PM,83.3,49.1,30,30.27,10.0,SSE,16.1,-,N/A,,Clear,150,2013-07-08 20:35:00
2:55 PM,82.6,50.4,33,30.26,10.0,SE,13.8,-,N/A,,Clear,140,2013-07-08 20:55:00
3:15 PM,84.0,49.8,30,30.26,10.0,South,8.1,19.6,N/A,,Clear,170,2013-07-08 21:15:00
3:35 PM,84.6,51.3,32,30.26,10.0,SSE,13.8,24.2,N/A,,Clear,160,2013-07-08 21:35:00
3:55 PM,83.7,50.7,32,30.25,10.0,SSE,11.5,18.4,N/A,,Clear,160,2013-07-08 21:55:00
4:15 PM,83.7,50.7,32,30.24,10.0,SE,10.4,-,N/A,,Clear,140,2013-07-08 22:15:00
4:35 PM,83.3,49.5,31,30.24,10.0,SSE,9.2,19.6,N/A,Thunderstorm,Clear,150,2013-07-08 22:35:00
4:55 PM,83.3,48.7,30,30.25,10.0,SE,6.9,-,N/A,Thunderstorm,Thunderstorm,130,2013-07-08 22:55:00
5:15 PM,82.4,48.9,31,30.26,10.0,ESE,5.8,-,N/A,,Clear,120,2013-07-08 23:15:00
5:35 PM,82.0,49.3,32,30.25,10.0,East,4.6,-,N/A,,Clear,90,2013-07-08 23:35:00
5:55 PM,81.5,49.3,32,30.24,10.0,ESE,4.6,-,N/A,,Clear,120,2013-07-08 23:55:00
6:15 PM,81.7,48.7,32,30.24,10.0,ESE,4.6,-,N/A,,Clear,120,2013-07-09 00:15:00
6:35 PM,81.3,49.1,32,30.24,10.0,SE,11.5,-,N/A,,Clear,140,2013-07-09 00:35:00
6:55 PM,80.6,48.4,32,30.25,10.0,SE,12.7,-,N/A,,Clear,130,2013-07-09 00:55:00
7:15 PM,79.9,47.8,32,30.26,10.0,ESE,12.7,-,N/A,,Clear,120,2013-07-09 01:15:00
7:35 PM,79.0,47.3,33,30.26,10.0,SE,12.7,-,N/A,,Clear,130,2013-07-09 01:35:00
7:55 PM,78.3,48.2,35,30.26,10.0,SE,13.8,-,N/A,,Clear,130,2013-07-09 01:55:00
8:15 PM,77.2,47.1,35,30.27,10.0,ESE,10.4,-,N/A,,Clear,120,2013-07-09 02:15:00
8:35 PM,76.5,46.8,35,30.28,10.0,SE,11.5,-,N/A,,Clear,130,2013-07-09 02:35:00
8:55 PM,75.6,46.9,36,30.29,10.0,SE,9.2,-,N/A,,Clear,130,2013-07-09 02:55:00
9:15 PM,75.2,46.8,36,30.29,10.0,ESE,9.2,-,N/A,,Clear,120,2013-07-09 03:15:00
9:35 PM,75.0,46.4,36,30.31,10.0,ESE,9.2,-,N/A,,Scattered Clouds,120,2013-07-09 03:35:00
9:55 PM,74.7,46.4,37,30.32,10.0,SE,8.1,-,N/A,,Mostly Cloudy,130,2013-07-09 03:55:00
10:15 PM,73.8,48.2,40,30.33,10.0,West,8.1,-,N/A,,Scattered Clouds,260,2013-07-09 04:15:00
10:35 PM,72.7,52.9,50,30.34,10.0,West,6.9,-,N/A,,Clear,260,2013-07-09 04:35:00
10:55 PM,70.3,53.2,55,30.34,10.0,West,6.9,-,N/A,,Clear,280,2013-07-09 04:55:00
11:15 PM,70.0,52.7,54,30.34,10.0,WNW,4.6,-,N/A,,Clear,300,2013-07-09 05:15:00
11:35 PM,69.8,52.7,54,30.33,10.0,West,3.5,-,N/A,,Clear,260,2013-07-09 05:35:00
11:55 PM,68.5,52.7,57,30.33,10.0,Calm,Calm,-,N/A,,Clear,0,2013-07-09 05:55:00